Weather History for KVIH - May, 2013

Change the Weather History Date:

Friday, May 31, 2013

  Actual Average Record
Temperature  
Mean Temperature 71 °F 68 °F  
Max Temperature 81 °F 78 °F 91 °F (2000)
Min Temperature 61 °F 58 °F 40 °F (1897)
Degree Days  
Heating Degree Days 0 2  
Month to date heating degree days 150 117  
Since 1 July heating degree days 4940 4834  
Cooling Degree Days 6 5  
Month to date cooling degree days 94 81  
Year to date cooling degree days 107 107  
Growing Degree Days 20 (Base 50)    
Moisture  
Dew Point 65 °F    
Average Humidity 87    
Maximum Humidity 100    
Minimum Humidity 74    
Precipitation  
Precipitation 2.20 in 0.16 in 2.20 in (2013)
Month to date precipitation 7.13 5.04  
Year to date precipitation 21.30 16.81  
Sea Level Pressure  
Sea Level Pressure 29.80 in    
Wind  
Wind Speed 10 mph (SE)    
Max Wind Speed 20 mph    
Max Gust Speed 24 mph    
Visibility 8 miles    
Events Rain , Thunderstorm    
T = Trace of Precipitation, MM = Missing Value Source: NWS Daily Summary

Daily Weather History Graph

Daily Weather History Graph

Search for Another Location

Airport or City:

Trip Planner

Search our weather history database for the weather conditions in past years. The results will help you decide how hot, cold, wet, or windy it might be!

Date:

Astronomy

May. 31, 2013 Rise Set
Actual Time 5:46 AM CDT 8:23 PM CDT
Civil Twilight 5:15 AM CDT 8:54 PM CDT
Nautical Twilight 4:36 AM CDT 9:33 PM CDT
Astronomical Twilight 3:53 AM CDT 10:16 PM CDT
Moon 1:03 AM CDT (5/31) 12:56 PM CDT (5/31)
Length of Visible Light 15h 39m
Length of Day
14h 37m
Waning Gibbous, 51% of the Moon is Illuminated
May 31
Waning Gibbous
May 31
Last Quarter
Jun 8
New
Jun 16
First Quarter
Jun 23
Full

Hourly Weather History & Observations

Time (CDT) Temp. Heat Index Dew Point Humidity Pressure Visibility Wind Dir Wind Speed Gust Speed Precip Events Conditions
12:53 AM 64.0 °F - 61.0 °F 90% 29.77 in 10.0 mi SSE 9.2 mph - N/A   Clear
1:53 AM 63.0 °F - 62.1 °F 97% 29.76 in 10.0 mi Calm Calm - N/A   Clear
2:53 AM 63.0 °F - 62.1 °F 97% 29.78 in 10.0 mi South 5.8 mph - N/A   Clear
3:53 AM 66.0 °F - 63.0 °F 90% 29.79 in 10.0 mi South 11.5 mph 20.7 mph N/A   Clear
4:53 AM 64.0 °F - 61.0 °F 90% 29.78 in 10.0 mi South 10.4 mph - N/A   Clear
5:53 AM 64.9 °F - 62.1 °F 90% 29.78 in 10.0 mi South 10.4 mph 17.3 mph N/A   Clear
6:53 AM 66.0 °F - 63.0 °F 90% 29.81 in 10.0 mi South 11.5 mph - N/A   Clear
7:53 AM 68.0 °F - 64.0 °F 87% 29.79 in 10.0 mi SSE 10.4 mph - N/A   Clear
8:38 AM 69.8 °F - 64.4 °F 83% 29.81 in 10.0 mi South 17.3 mph 27.6 mph N/A   Overcast
8:53 AM 71.1 °F - 64.9 °F 81% 29.80 in 10.0 mi South 13.8 mph 25.3 mph N/A   Overcast
9:53 AM 70.0 °F - 64.9 °F 84% 29.78 in 10.0 mi South 19.6 mph 26.5 mph N/A   Overcast
10:16 AM 69.8 °F - 66.2 °F 88% 29.79 in 10.0 mi SSE 19.6 mph 29.9 mph N/A Thunderstorm Overcast
10:39 AM 66.2 °F - 62.6 °F 88% 29.83 in 9.0 mi North 12.7 mph 23.0 mph 0.01 in Rain , Thunderstorm Light Thunderstorms and Rain
10:47 AM 64.4 °F - 62.6 °F 94% 29.83 in 10.0 mi NNE 9.2 mph - 0.01 in Rain , Thunderstorm Light Thunderstorms and Rain
10:53 AM 64.0 °F - 63.0 °F 96% 29.82 in 8.0 mi North 6.9 mph - 0.02 in Rain , Thunderstorm Light Thunderstorms and Rain
10:57 AM 64.4 °F - 62.6 °F 94% 29.84 in 9.0 mi NNE 10.4 mph - 0.00 in Rain , Thunderstorm Light Thunderstorms and Rain
11:29 AM 64.4 °F - 64.4 °F 100% 29.84 in 10.0 mi Variable 3.5 mph - 0.04 in Rain Light Rain
11:53 AM 69.1 °F - 66.9 °F 93% 29.81 in 10.0 mi SSE 3.5 mph - 0.04 in   Overcast
12:25 PM 69.8 °F - 66.2 °F 88% 29.83 in 10.0 mi ESE 8.1 mph - N/A   Overcast
12:53 PM 71.1 °F - 69.1 °F 93% 29.80 in 10.0 mi SE 4.6 mph - N/A   Overcast
1:22 PM 77.0 °F - 69.8 °F 78% 29.81 in 10.0 mi South 13.8 mph 21.9 mph N/A   Mostly Cloudy
1:53 PM 75.9 °F - 70.0 °F 82% 29.78 in 10.0 mi South 8.1 mph - N/A   Overcast
2:53 PM 80.1 °F 83.6 °F 71.1 °F 74% 29.75 in 10.0 mi South 15.0 mph 26.5 mph N/A   Partly Cloudy
3:24 PM 78.8 °F - 71.6 °F 78% 29.78 in 9.0 mi South 12.7 mph 27.6 mph N/A   Mostly Cloudy
3:50 PM 80.6 °F 84.6 °F 71.6 °F 74% 29.77 in 10.0 mi South 15.0 mph 24.2 mph N/A   Mostly Cloudy
3:53 PM 81.0 °F 85.2 °F 72.0 °F 74% 29.73 in 10.0 mi South 15.0 mph 24.2 mph N/A   Mostly Cloudy
4:07 PM 80.6 °F 84.6 °F 71.6 °F 74% 29.77 in 10.0 mi South 15.0 mph 21.9 mph N/A   Mostly Cloudy
4:26 PM 80.6 °F 84.6 °F 71.6 °F 74% 29.76 in 10.0 mi South 15.0 mph 20.7 mph N/A   Overcast
4:53 PM 80.1 °F 83.8 °F 72.0 °F 76% 29.73 in 10.0 mi South 10.4 mph 19.6 mph N/A   Scattered Clouds
5:53 PM 78.1 °F - 71.1 °F 79% 29.71 in 10.0 mi South 13.8 mph - N/A   Scattered Clouds
6:26 PM 77.0 °F - 71.6 °F 83% 29.70 in 10.0 mi SSE 12.7 mph 24.2 mph N/A Thunderstorm Partly Cloudy
6:41 PM 75.2 °F - 71.6 °F 89% 29.70 in 10.0 mi SSE 16.1 mph 21.9 mph N/A   Partly Cloudy
6:53 PM 75.9 °F - 71.1 °F 85% 29.70 in 10.0 mi South 16.1 mph - N/A   Scattered Clouds
7:18 PM 66.2 °F - 60.8 °F 83% 29.82 in 7.0 mi NW 24.2 mph 39.1 mph 0.01 in Rain , Thunderstorm Light Rain
7:28 PM 62.6 °F - 60.8 °F 94% 29.79 in 2.5 mi North 16.1 mph 27.6 mph 0.05 in Rain , Thunderstorm Rain
7:31 PM 62.6 °F - 62.6 °F 100% 29.80 in 3.0 mi North 11.5 mph 27.6 mph 0.07 in Rain , Thunderstorm Heavy Rain
7:43 PM 62.6 °F - 60.8 °F 94% 29.78 in 9.0 mi NNE 12.7 mph - 0.09 in Rain Light Rain
7:53 PM 62.1 °F - 61.0 °F 96% 29.79 in 10.0 mi NE 5.8 mph 17.3 mph 0.10 in Rain Light Rain
8:23 PM 62.6 °F - 60.8 °F 94% 29.81 in 8.0 mi ENE 4.6 mph - 0.11 in Rain , Thunderstorm Light Thunderstorms and Rain
8:43 PM 62.6 °F - 60.8 °F 94% 29.79 in 10.0 mi East 5.8 mph - 0.17 in Rain , Thunderstorm Light Rain
8:53 PM 62.1 °F - 61.0 °F 96% 29.78 in 4.0 mi ENE 6.9 mph - 0.22 in Rain , Thunderstorm Heavy Thunderstorms and Rain
9:04 PM 62.6 °F - 60.8 °F 94% 29.82 in 2.5 mi East 3.5 mph - 0.10 in Rain , Thunderstorm Heavy Thunderstorms and Rain
9:19 PM 60.8 °F - 60.8 °F 100% 29.81 in 1.5 mi ENE 4.6 mph - 0.34 in Rain , Thunderstorm Heavy Thunderstorms and Rain
9:30 PM 60.8 °F - 60.8 °F 100% 29.81 in 2.5 mi NNE 10.4 mph - 0.42 in Rain , Thunderstorm Light Thunderstorms and Rain
9:33 PM 60.8 °F - 60.8 °F 100% 29.82 in 4.0 mi North 10.4 mph - 0.44 in Rain , Thunderstorm Thunderstorms and Rain
9:45 PM 62.6 °F - 60.8 °F 94% 29.80 in 2.5 mi NNE 21.9 mph 28.8 mph 0.56 in Rain , Thunderstorm Heavy Thunderstorms and Rain
9:53 PM 62.1 °F - 61.0 °F 96% 29.82 in 2.5 mi North 21.9 mph 27.6 mph 0.60 in Rain , Thunderstorm Heavy Thunderstorms and Rain
10:00 PM 62.6 °F - 60.8 °F 94% 29.85 in 1.8 mi NW 16.1 mph 27.6 mph 0.12 in Rain , Thunderstorm Heavy Thunderstorms and Rain
10:06 PM 62.6 °F - 62.6 °F 100% 29.85 in 0.8 mi WNW 12.7 mph 24.2 mph 0.31 in Rain , Thunderstorm Heavy Thunderstorms and Rain
10:23 PM 62.6 °F - 62.6 °F 100% 29.87 in 0.8 mi Variable 4.6 mph - 0.68 in Rain , Thunderstorm Heavy Thunderstorms and Rain
10:44 PM 62.6 °F - 62.6 °F 100% 29.87 in 1.5 mi NW 6.9 mph - 1.08 in Rain , Thunderstorm Heavy Thunderstorms and Rain
10:46 PM 62.6 °F - 62.6 °F 100% 29.87 in 2.0 mi WNW 5.8 mph - 1.09 in Rain , Thunderstorm Thunderstorms and Rain
10:53 PM 63.0 °F - 63.0 °F 100% 29.84 in 3.0 mi North 3.5 mph - 1.11 in Rain , Thunderstorm Heavy Thunderstorms and Rain
11:42 PM 64.4 °F - 62.6 °F 94% 29.89 in 8.0 mi South 6.9 mph - 0.07 in Rain Light Rain
11:53 PM 64.0 °F - 63.0 °F 96% 29.84 in 6.0 mi SSW 3.5 mph - 0.08 in Rain , Thunderstorm Light Rain